Flag for U.S.A. Weather past 2 weeks in Charleston, South Carolina, U.S.A.

Now
46 °F

Fog.


Feels Like: 43 °F
Forecast: 49 / 54 °F
Wind: 6 mph from Northeast

Location: Charleston Air Force Base Reporting Station

Current Time: Dec 22, 2014 at 7:16:05 AM

Latest Report: Dec 22, 2014 at 5:56 AM


Visibility: 1 mi

Pressure: 30.04 "Hg

Humidity: 96%

Dew point: 45 °F

Location of CharlestonLocation

Historic Weather in Charleston — Graph

°F

Charleston temperature yesterday

Maximum temperature yesterday: 50 °F (at 12:56 PM)
Minimum temperature yesterday: 44 °F (at 7:56 AM)
Average temperature yesterday: 47 °F

Past Weeks' High & Low Weather Summary

 TemperatureHumidityPressure
High72 °F (Dec 16, 12:56 PM)100% (Dec 15, 11:04 PM)30.32 "Hg (Dec 15, 11:04 PM)
Low28 °F (Dec 12, 5:56 AM)18% (Dec 13, 12:56 PM)29.94 "Hg (Dec 9, 2:56 PM)
Average48 °F72%30.12 "Hg
* Reported Dec 7 5:56 AM — Dec 22 5:56 AM, Charleston, Weather by CustomWeather, © 2014

Note: Actual official high and low records may vary slightly from our data, if they occured in-between our weather recording intervals... More about our weather records

Advertising

Charleston weather history for previous 24 hours

 ConditionsComfort  
Time TempWeatherWind HumidityBarometerVisibility
5:56 AM
Dec 22
46 °FFog.6 mph96%30.04 "Hg1 mi
4:56 AM46 °FDrizzle. Fog.7 mph96%30.03 "Hg1 mi
4:01 AM46 °FFog.9 mph93%30.05 "Hg2 mi
2:56 AM47 °FLow clouds.7 mph93%30.06 "Hg7 mi
1:56 AM47 °FLight rain. Fog.7 mph93%30.06 "Hg6 mi
12:56 AM47 °FLight rain. Fog.8 mph97%30.08 "Hg5 mi
11:56 PM
Dec 21
47 °FMostly cloudy.6 mph97%30.10 "Hg7 mi
10:56 PM47 °FLight rain. Fog.7 mph93%30.10 "Hg6 mi
9:56 PM47 °FHeavy rain. Fog.5 mph93%30.11 "Hg6 mi
8:56 PM49 °FMostly cloudy.7 mph80%30.13 "Hg10 mi
7:56 PM48 °FOvercast.9 mph83%30.14 "Hg10 mi
6:56 PM48 °FOvercast.12 mph83%30.15 "Hg10 mi
5:56 PM48 °FOvercast.8 mph83%30.16 "Hg10 mi
4:56 PM47 °FOvercast.9 mph86%30.15 "Hg10 mi
3:56 PM48 °FOvercast.9 mph83%30.15 "Hg10 mi
2:56 PM50 °FMore clouds than sun.9 mph68%30.16 "Hg10 mi
1:56 PM50 °FOvercast.10 mph68%30.16 "Hg10 mi
12:56 PM50 °FMostly cloudy.10 mph68%30.18 "Hg10 mi
11:56 AM49 °FMore clouds than sun.12 mph71%30.21 "Hg10 mi
10:56 AM47 °FMostly cloudy.8 mph80%30.22 "Hg10 mi
9:56 AM46 °FLight rain. Cloudy.10 mph83%30.24 "Hg10 mi
8:56 AM45 °FLight rain. Mostly cloudy.6 mph90%30.23 "Hg8 mi
7:56 AM44 °FLight rain. Fog.8 mph93%30.23 "Hg6 mi
Weather by CustomWeather, © 2014

See weather overviewHow to use our weather pages